Regional Weather Roundup
Issued by NWS

Home | Current Version | Previous Version | Text Only | Print | Product List | Glossary On
Versions: 1 2 3 4 5 6 7 8 9 10 11 12 13 14 15 16 17 18 19 20 21 22 23 24 25 26 27 28 29 30 31 32 33 34 35 36 37 38 39 40 41 42 43 44 45 46 47 48 49 50
000
ASUS44 KFWD 011215
RWRTX
NORTH TEXAS HOURLY WEATHER ROUNDUP
NATIONAL WEATHER SERVICE FORT WORTH TX
700 AM CDT TUE SEP 01 2015

NOTE: "FAIR" INDICATES FEW OR NO CLOUDS BELOW 12,000 FEET WITH NO
SIGNIFICANT WEATHER AND/OR OBSTRUCTIONS TO VISIBILITY.

TXZ118-119-011300-
DALLAS/FORT WORTH METROPLEX

CITY           SKY/WX    TMP DP  RH WIND       PRES   REMARKS
DFW AIRPORT    PTCLDY    75  69  81 S7        30.01S
6HR MIN TEMP:  75; 6HR MAX TEMP:  82;

DALLAS LOVE    PTCLDY    76  69  79 S7        30.02S
6HR MIN TEMP:  76; 6HR MAX TEMP:  82;

FTW MEACHAM    CLEAR     75  69  81 SE9       30.01S
6HR MIN TEMP:  75; 6HR MAX TEMP:  83;

DAL-EXECUTIVE  CLEAR     73  69  87 SE5       30.02S
6HR MIN TEMP:  73; 6HR MAX TEMP:  80;

FTW-ALLIANCE   PTCLDY    73  69  87 SE7       30.01S
6HR MIN TEMP:  73; 6HR MAX TEMP:  80;

FTW-NAS-JRB    PTCLDY    75  69  81 SE6       30.02R
6HR MIN TEMP:  75; 6HR MAX TEMP:  82;

FTW-SPINKS     CLEAR     72  68  88 S5        30.04S
ARLINGTON      CLEAR     76  68  76 SE6       30.02S
6HR MIN TEMP:  75; 6HR MAX TEMP:  82;

ADDISON        PTCLDY    75  68  78 E7        30.04S
MESQUITE       CLEAR     72  70  94 CALM      30.02S
LANCASTER      CLEAR     73  67  81 CALM      30.03S
6HR MIN TEMP:  73; 6HR MAX TEMP:  78;

$$

TXZ091>094-102>105-117-120-121-131>134-011300-
NORTH CENTRAL TEXAS

CITY           SKY/WX    TMP DP  RH WIND       PRES   REMARKS
SHRMAN/DENISON CLEAR     74  70  87 S7        30.03S
6HR MIN TEMP:  74; 6HR MAX TEMP:  80;

GAINESVILLE    CLEAR     72  66  83 SE6       30.04S
6HR MIN TEMP:  72; 6HR MAX TEMP:  76;

BOWIE          CLEAR     69  65  89 SE3       30.02S
6HR MIN TEMP:  69; 6HR MAX TEMP:  74;

BRIDGEPORT     CLEAR     67  67 100 CALM      30.03S
6HR MIN TEMP:  67; 6HR MAX TEMP:  77;

DECATUR        CLEAR     73  66  80 SE6       30.03R
6HR MIN TEMP:  73; 6HR MAX TEMP:  78;

DENTON         CLEAR     73  68  84 S7        30.01S
6HR MIN TEMP:  73; 6HR MAX TEMP:  79;

MCKINNEY       PTCLDY    74  69  85 S6        30.03R
6HR MIN TEMP:  74; 6HR MAX TEMP:  79;

GREENVILLE     CLEAR     72  68  88 CALM      30.03S
ROCKWALL       CLEAR     73  70  91 S3        30.02S
6HR MIN TEMP:  73; 6HR MAX TEMP:  79;

TERRELL        CLEAR     73  69  87 CALM      30.03S
6HR MIN TEMP:  72; 6HR MAX TEMP:  77;

WAXAHACHIE     CLEAR     71  71  99 CALM      30.04S
6HR MIN TEMP:  71; 6HR MAX TEMP:  78;

CLEBURNE         N/A     72  72 100 SE7       30.04S
GRANBURY       CLEAR     73  67  83 SE5       30.03R
6HR MIN TEMP:  73; 6HR MAX TEMP:  81;

$$

TXZ083>090-098>101-113>116-127>130-139>142-154-155-011300-
WESTERN NORTH TEXAS

CITY           SKY/WX    TMP DP  RH WIND       PRES   REMARKS
WICHITA FALLS  CLEAR     69  65  86 CALM      30.00R
6HR MIN TEMP:  69; 6HR MAX TEMP:  76;

WF-KICKAPOO    CLEAR     73  67  82 SE6       30.02R
6HR MIN TEMP:  73; 6HR MAX TEMP:  79;

VERNON         CLEAR     71  59  65 CALM      30.00R
6HR MIN TEMP:  71; 6HR MAX TEMP:  98;

ABILENE        CLEAR     72  65  78 S9        30.02R
6HR MIN TEMP:  72; 6HR MAX TEMP:  77;

ABILENE-DYESS  CLEAR     72  65  79 SE7       30.01R
6HR MIN TEMP:  72; 6HR MAX TEMP:  77;

BRECKENRIDGE   CLEAR     73  66  79 SE3       30.01R
6HR MIN TEMP:  73; 6HR MAX TEMP:  81;

GRAHAM         CLEAR     71  68  90 E3        30.00R
6HR MIN TEMP:  71; 6HR MAX TEMP:  79;

MINERAL WELLS  CLEAR     70  67  90 SE8       30.00S
6HR MIN TEMP:  70; 6HR MAX TEMP:  76;

STEPHENVILLE   CLEAR     69  65  89 CALM      30.05S
6HR MIN TEMP:  69; 6HR MAX TEMP:  76;

COMANCHE       CLEAR     70  68  94 CALM      30.02S
6HR MIN TEMP:  70; 6HR MAX TEMP:  78;

BROWNWOOD      PTCLDY    68  66  94 CALM      30.03R
COLEMAN        CLEAR     70  65  86 S3        30.03S
6HR MIN TEMP:  70; 6HR MAX TEMP:  78;

BRADY          CLEAR     70  68  94 CALM      30.03R
$$

TXZ143>147-156>162-174-175-011300-
CENTRAL TEXAS

CITY           SKY/WX    TMP DP  RH WIND       PRES   REMARKS
WACO           CLEAR     71  68  90 SE6       30.01S
6HR MIN TEMP:  71; 6HR MAX TEMP:  79;

WACO-TSTC      CLEAR     70  68  94 CALM      30.01
WACO-MCGREGOR  CLEAR     70  68  93 SE5       30.01S
6HR MIN TEMP:  69; 6HR MAX TEMP:  77;

HILLSBORO      CLEAR     71  66  85 SE3       30.02S
6HR MIN TEMP:  71; 6HR MAX TEMP:  78;

CORSICANA      CLEAR     72  69  90 S3        30.02F
6HR MIN TEMP:  72; 6HR MAX TEMP:  77;

MEXIA          CLEAR     69  68  98 NE7       30.02R FOG
6HR MIN TEMP:  68; 6HR MAX TEMP:  75;

HEARNE         CLEAR     70  69  96 CALM      30.02S
6HR MIN TEMP:  70; 6HR MAX TEMP:  75;

CAMERON        PTCLDY    70  69  97 CALM      30.01S
6HR MIN TEMP:  70; 6HR MAX TEMP:  76;

TEMPLE         CLEAR     70  64  83 CALM      30.01S
6HR MIN TEMP:  68; 6HR MAX TEMP:  75;

KILLEEN        MOCLDY    70  70 100 SE7       30.01R
6HR MIN TEMP:  70; 6HR MAX TEMP:  76;

KILLEEN-SKYLRK CLEAR     72  64  78 SE6       30.00R
6HR MIN TEMP:  72; 6HR MAX TEMP:  75;

FORT HOOD      CLEAR     70  69  95 SE7       30.00S
6HR MIN TEMP:  70; 6HR MAX TEMP:  75;

GATESVILLE     CLEAR     70  70 100 CALM      30.03S
HAMILTON       CLEAR     68  68 100 CALM      30.03S
6HR MIN TEMP:  68; 6HR MAX TEMP:  76;

$$

TXZ095>097-106>112-122>126-135>138-148>153-164>167-011300-
EAST TEXAS

CITY           SKY/WX    TMP DP  RH WIND       PRES   REMARKS
PARIS          CLEAR     72  63  73 SE8       30.04S
6HR MIN TEMP:  72; 6HR MAX TEMP:  73;

SULPHUR SPRNGS CLEAR     73  69  87 CALM      30.05S
6HR MIN TEMP:  73; 6HR MAX TEMP:  78;

MOUNT PLEASANT CLEAR     66  66 100 CALM      30.06R
6HR MIN TEMP:  65; 6HR MAX TEMP:  72;

MINEOLA        CLEAR     70  70 100 CALM      30.03F FOG
TYLER          CLEAR     70  67  90 SE5       30.03S
6HR MIN TEMP:  70; 6HR MAX TEMP:  76;

LONGVIEW       PTCLDY    71  68  90 CALM      30.03F
6HR MIN TEMP:  71; 6HR MAX TEMP:  74;

MARSHALL       MOCLDY    73  71  92 CALM      30.06S
6HR MIN TEMP:  71; 6HR MAX TEMP:  73;

ATHENS         CLEAR     66  66 100 CALM      30.02R
PALESTINE      CLEAR     68  68 100 CALM      30.03S
JACKSONVILLE   CLEAR     69  68  94 CALM      30.06S FOG
HENDERSON      PTCLDY    69  68  97 CALM      30.06R
6HR MIN TEMP:  68; 6HR MAX TEMP:  73;

CENTER         FAIR      73  70  90 CALM      30.04R
6HR MIN TEMP:  72; 6HR MAX TEMP:  74;

NACOGDOCHES    PTCLDY    68  66  94 CALM      30.03S
6HR MIN TEMP:  68; 6HR MAX TEMP:  72;

LUFKIN         MOCLDY    68  67  96 CALM      30.03R
6HR MIN TEMP:  68; 6HR MAX TEMP:  72;

$$

SUPPLEMENTAL OBSERVATIONS (CENTRAL)

CITY           SKY/WX    TMP DP  RH WIND       PRES   REMARKS
PAT MAYSE LAKE   N/A     75  70  83 SE6         N/A
GREENVILLE       N/A     72  66  83 SE1         N/A
CEDAR HILL       N/A     73  66  78 S6          N/A
LAKE LIMESTONE   N/A     70  66  88 CALM        N/A
MCGREGOR         N/A     70  66  88 CALM        N/A
TEMPLE           N/A     70  66  88 E3          N/A
$$

SUPPLEMENTAL OBSERVATIONS (WEST)

CITY           SKY/WX    TMP DP  RH WIND       PRES   REMARKS
MILLERS CREEK    N/A     73  64  73 S8          N/A
POSSUM KINGDOM   N/A     73  64  73 SE6         N/A



USA.gov is the U.S. government's official web portal to all federal, state and local government web resources and services.